• In Latvia
  • List of Countries
  • For 7 days
  • Water Temperature
  • Satellite Maps
  • Weather Map
  • Weather Widgets
  • user-avatar
    Login

    Hourly Weather Elbasan

    Today, 23 November, Thursday

    Time Temperature Precipitation Wind Pressure Humidity
    00:00 +8°C° 0 mm 1 mps 738 mmHg 76%
    01:00 +8°C° 0 mm 1 mps 738 mmHg 75%
    02:00 +8°C° 0 mm 1 mps 738 mmHg 74%
    03:00 +8°C° 0 mm 1 mps 738 mmHg 74%
    04:00 +8°C° 0 mm 1 mps 738 mmHg 73%
    05:00 +8°C° 0 mm 1 mps 738 mmHg 72%
    06:00 +8°C° 0 mm 1 mps 738 mmHg 71%
    07:00 +8°C° 0 mm 1 mps 738 mmHg 70%
    08:00 +10°C° 0 mm 1 mps 738 mmHg 63%
    09:00 +12°C° 0 mm 1 mps 739 mmHg 57%
    10:00 +14°C° 0 mm 0 mps 739 mmHg 50%
    11:00 +15°C° 0 mm 1 mps 739 mmHg 49%
    12:00 +16°C° 0 mm 1 mps 738 mmHg 48%
    13:00 +16°C° 0 mm 1 mps 738 mmHg 48%
    14:00 +15°C° 0 mm 1 mps 738 mmHg 54%
    15:00 +14°C° 0 mm 1 mps 738 mmHg 60%
    16:00 +12°C° 0 mm 1 mps 738 mmHg 67%
    17:00 +11°C° 0 mm 1 mps 738 mmHg 69%
    18:00 +11°C° 0 mm 1 mps 738 mmHg 71%
    19:00 +10°C° 0 mm 1 mps 739 mmHg 73%
    20:00 +10°C° 0 mm 1 mps 739 mmHg 72%
    21:00 +10°C° 0 mm 1 mps 739 mmHg 71%
    22:00 +9°C° 0 mm 1 mps 739 mmHg 70%
    23:00 +9°C° 0 mm 1 mps 739 mmHg 69%

    Tomorrow, 24 November, Friday

    Time Temperature Precipitation Wind Pressure Humidity
    00:00 +9°C° 0 mm 1 mps 739 mmHg 69%
    01:00 +9°C° 0 mm 1 mps 739 mmHg 68%
    02:00 +9°C° 0 mm 1 mps 739 mmHg 68%
    03:00 +9°C° 0 mm 1 mps 739 mmHg 68%
    04:00 +8°C° 0 mm 1 mps 739 mmHg 68%
    05:00 +8°C° 0 mm 1 mps 739 mmHg 68%
    06:00 +8°C° 0 mm 1 mps 739 mmHg 68%
    07:00 +8°C° 0 mm 1 mps 739 mmHg 68%
    08:00 +11°C° 0 mm 1 mps 739 mmHg 63%
    09:00 +13°C° 0 mm 1 mps 739 mmHg 57%
    10:00 +14°C° 0 mm 0 mps 739 mmHg 52%
    11:00 +15°C° 0 mm 1 mps 739 mmHg 52%
    12:00 +16°C° 0 mm 1 mps 739 mmHg 53%
    13:00 +16°C° 0 mm 2 mps 739 mmHg 53%
    14:00 +15°C° 0 mm 1 mps 738 mmHg 60%
    15:00 +14°C° 0 mm 1 mps 738 mmHg 68%
    16:00 +12°C° 0 mm 1 mps 738 mmHg 75%
    17:00 +11°C° 0 mm 1 mps 739 mmHg 78%
    18:00 +11°C° 0 mm 1 mps 739 mmHg 80%
    19:00 +10°C° 0 mm 1 mps 739 mmHg 83%
    20:00 +10°C° 0 mm 1 mps 739 mmHg 83%
    21:00 +9°C° 0 mm 1 mps 739 mmHg 83%
    22:00 +9°C° 0 mm 1 mps 739 mmHg 82%
    23:00 +9°C° 0 mm 1 mps 739 mmHg 81%

    Day after tomorrow, 25 November, Saturday

    Time Temperature Precipitation Wind Pressure Humidity
    00:00 +9°C° 0 mm 1 mps 739 mmHg 81%
    01:00 +9°C° 0 mm 1 mps 739 mmHg 80%
    02:00 +9°C° 0 mm 1 mps 739 mmHg 79%
    03:00 +8°C° 0 mm 1 mps 739 mmHg 78%
    04:00 +8°C° 0 mm 1 mps 739 mmHg 77%
    05:00 +8°C° 0 mm 1 mps 739 mmHg 76%
    06:00 +8°C° 0 mm 1 mps 739 mmHg 75%
    07:00 +8°C° 0 mm 1 mps 739 mmHg 74%
    08:00 +10°C° 0 mm 1 mps 739 mmHg 68%
    09:00 +12°C° 0 mm 1 mps 739 mmHg 61%
    10:00 +14°C° 0 mm 1 mps 739 mmHg 54%
    11:00 +15°C° 0 mm 1 mps 739 mmHg 53%
    12:00 +15°C° 0 mm 1 mps 738 mmHg 52%
    13:00 +16°C° 0 mm 1 mps 738 mmHg 51%
    14:00 +15°C° 0 mm 1 mps 738 mmHg 57%
    15:00 +13°C° 0 mm 1 mps 737 mmHg 64%
    16:00 +12°C° 0 mm 1 mps 737 mmHg 70%
    17:00 +11°C° 0 mm 1 mps 737 mmHg 74%
    18:00 +11°C° 0 mm 1 mps 738 mmHg 78%
    19:00 +10°C° 0 mm 1 mps 738 mmHg 82%
    20:00 +10°C° 0 mm 1 mps 738 mmHg 82%
    21:00 +9°C° 0 mm 1 mps 738 mmHg 83%
    22:00 +9°C° 0 mm 1 mps 738 mmHg 83%
    23:00 +8°C° 0 mm 2 mps 738 mmHg 83%

    26 November, Sunday

    Time Temperature Precipitation Wind Pressure Humidity
    00:00 +8°C° 0 mm 2 mps 738 mmHg 82%
    01:00 +8°C° 0 mm 2 mps 738 mmHg 82%
    02:00 +8°C° 0 mm 2 mps 737 mmHg 81%
    03:00 +8°C° 0 mm 2 mps 737 mmHg 81%
    04:00 +8°C° 0 mm 2 mps 737 mmHg 80%
    05:00 +8°C° 0 mm 2 mps 737 mmHg 79%
    06:00 +8°C° 0 mm 2 mps 737 mmHg 79%
    07:00 +9°C° 0 mm 2 mps 737 mmHg 78%
    08:00 +10°C° 0 mm 2 mps 737 mmHg 73%
    09:00 +13°C° 0 mm 2 mps 737 mmHg 67%
    10:00 +13°C° 0 mm 3 mps 737 mmHg 62%
    11:00 +14°C° 0 mm 3 mps 736 mmHg 61%
    12:00 +16°C° 0 mm 3 mps 735 mmHg 61%
    13:00 +16°C° 0 mm 3 mps 735 mmHg 61%
    14:00 +14°C° 0 mm 3 mps 734 mmHg 66%
    15:00 +13°C° 0 mm 3 mps 734 mmHg 71%
    16:00 +14°C° 0 mm 2 mps 734 mmHg 76%
    17:00 +12°C° 0.3 mm 3 mps 734 mmHg 78%
    18:00 +11°C° 0.3 mm 3 mps 734 mmHg 80%
    19:00 +11°C° 0.3 mm 3 mps 733 mmHg 82%
    20:00 +11°C° 0.5 mm 3 mps 733 mmHg 83%
    21:00 +11°C° 0.5 mm 3 mps 733 mmHg 83%
    22:00 +11°C° 0.5 mm 3 mps 733 mmHg 84%
    23:00 +11°C° 0.6 mm 3 mps 733 mmHg 86%

    27 November, Monday

    Time Temperature Precipitation Wind Pressure Humidity
    00:00 +10°C° 0.6 mm 3 mps 732 mmHg 88%
    01:00 +10°C° 0.6 mm 2 mps 732 mmHg 91%
    02:00 +10°C° 0.3 mm 2 mps 732 mmHg 91%
    03:00 +10°C° 0.3 mm 2 mps 732 mmHg 91%
    04:00 +10°C° 0.3 mm 2 mps 732 mmHg 92%
    05:00 +9°C° 0.4 mm 2 mps 732 mmHg 92%
    06:00 +9°C° 0.4 mm 2 mps 733 mmHg 92%
    07:00 +8°C° 0.4 mm 2 mps 733 mmHg 92%
    08:00 +10°C° 0.2 mm 2 mps 733 mmHg 84%
    09:00 +12°C° 0.2 mm 2 mps 734 mmHg 77%
    10:00 +13°C° 0.2 mm 2 mps 734 mmHg 69%
    11:00 +13°C° 0.2 mm 2 mps 734 mmHg 70%
    12:00 +12°C° 0.2 mm 3 mps 734 mmHg 71%
    13:00 +12°C° 0.2 mm 3 mps 734 mmHg 71%
    14:00 +11°C° 0.3 mm 3 mps 734 mmHg 75%
    15:00 +10°C° 0.3 mm 2 mps 734 mmHg 78%
    16:00 +10°C° 0.3 mm 2 mps 735 mmHg 81%
    17:00 +9°C° 0.2 mm 2 mps 735 mmHg 82%
    18:00 +9°C° 0.2 mm 2 mps 735 mmHg 83%
    19:00 +8°C° 0.2 mm 2 mps 736 mmHg 85%
    20:00 +8°C° 0.1 mm 2 mps 736 mmHg 84%
    21:00 +8°C° 0.1 mm 2 mps 736 mmHg 84%
    22:00 +7°C° 0.1 mm 2 mps 736 mmHg 84%
    23:00 +7°C° 0 mm 2 mps 737 mmHg 84%

    28 November, Tuesday

    Time Temperature Precipitation Wind Pressure Humidity
    00:00 +6°C° 0 mm 2 mps 737 mmHg 84%
    01:00 +6°C° 0 mm 2 mps 737 mmHg 84%
    02:00 +6°C° 0 mm 2 mps 737 mmHg 83%
    03:00 +5°C° 0 mm 2 mps 737 mmHg 83%
    04:00 +5°C° 0 mm 2 mps 737 mmHg 83%
    05:00 +5°C° 0 mm 2 mps 737 mmHg 82%
    06:00 +4°C° 0 mm 2 mps 737 mmHg 82%
    07:00 +4°C° 0 mm 2 mps 738 mmHg 82%
    08:00 +6°C° 0 mm 1 mps 738 mmHg 75%
    09:00 +8°C° 0 mm 1 mps 738 mmHg 69%
    10:00 +9°C° 0 mm 1 mps 738 mmHg 63%
    11:00 +10°C° 0 mm 1 mps 738 mmHg 61%
    12:00 +10°C° 0 mm 1 mps 737 mmHg 59%
    13:00 +11°C° 0 mm 1 mps 737 mmHg 56%
    14:00 +10°C° 0 mm 1 mps 737 mmHg 60%
    15:00 +9°C° 0 mm 1 mps 737 mmHg 65%
    16:00 +8°C° 0 mm 1 mps 737 mmHg 69%
    17:00 +8°C° 0 mm 1 mps 737 mmHg 71%
    18:00 +7°C° 0 mm 1 mps 737 mmHg 74%
    19:00 +5°C° 0 mm 0 mps 737 mmHg 76%
    20:00 +6°C° 0 mm 1 mps 737 mmHg 77%
    21:00 +6°C° 0 mm 1 mps 738 mmHg 78%
    22:00 +6°C° 0 mm 1 mps 738 mmHg 79%
    23:00 +6°C° 0 mm 1 mps 738 mmHg 80%
    Show more